Location: Madden
(51.3728°N, 114.3297°W)
Time: 00:15:13
(UTC+00:00)

SEEDS - Pass Details

Date: 22 April 2025
Orbit: 510 x 513 km, 97.7° (Epoch: 16 May)

Event Time Altitude Azimuth Distance (km) Brightness Sun altitude
Rises 11:25:42 0° 23° (NNE) 2,649 ? -9.2°
Reaches altitude 10° 11:28:02 10° 35° (NE) 1,756 ? -8.9°
Maximum altitude 11:31:20 28° 95° (E) 1,004 ? -8.5°
Drops below altitude 10° 11:34:36 10° 156° (SSE) 1,743 ? -8.1°
Sets 11:36:54 0° 168° (SSE) 2,624 ? -7.8°
